QPF
0.02 0.01 0.01 0.01 0.01 0.00 0.00 0.00 0.00 0.00 0.00 0.00 0.01 0.01 0.01 0.01 0.01 0.01 0.01 0.01 0.02 0.03 0.05 0.04 0.02 0.02 0.02 0.02 0.02 0.01 0.01 0.01 0.01 0.01 0.01 0.01 0.01 0.01 0.01 0.01 0.01 0.00 0.00
0.02 0.02 0.02 0.02 0.01 0.01 0.01 0.00 0.01 0.01 0.01 0.01 0.01 0.01 0.01 0.01 0.01 0.01 0.01 0.02 0.03 0.04 0.04 0.03 0.02 0.01 0.01 0.01 0.01 0.01 0.01 0.01 0.00 0.01 0.01 0.01 0.01 0.01 0.01 0.01 0.01 0.01 0.01
0.04 0.04 0.04 0.04 0.03 0.02 0.01 0.01 0.02 0.03 0.03 0.03 0.03 0.02 0.02 0.01 0.01 0.01 0.02 0.03 0.02 0.02 0.03 0.01 0.01 0.01 0.00 0.00 0.00 0.01 0.01 0.00 0.00 0.00 0.00 0.00 0.01 0.01 0.00 0.00 0.00 0.01 0.01
0.05 0.06 0.06 0.06 0.05 0.04 0.03 0.03 0.04 0.05 0.06 0.05 0.04 0.02 0.01 0.01 0.02 0.03 0.03 0.02 0.02 0.02 0.02 0.01 0.00 0.00 0.00 0.00 0.00 0.00 0.01 0.01 0.01 0.00 0.00 0.00 0.01 0.01 0.00 0.00 0.00 0.00 0.00
0.04 0.04 0.06 0.09 0.10 0.09 0.09 0.08 0.08 0.08 0.08 0.06 0.05 0.03 0.03 0.03 0.03 0.03 0.02 0.02 0.01 0.01 0.01 0.01 0.01 0.00 0.00 0.00 0.00 0.00 0.00 0.00 0.00 0.00 0.00 0.00 0.00 0.01 0.00 0.00 0.00 0.00 0.00
0.05 0.05 0.06 0.07 0.09 0.09 0.09 0.09 0.09 0.08 0.06 0.05 0.04 0.03 0.02 0.02 0.03 0.02 0.01 0.02 0.02 0.02 0.01 0.01 0.01 0.00 0.00 0.00 0.00 0.00 0.00 0.00 0.00 0.00 0.00 0.01 0.01 0.01 0.01 0.00 0.00 0.00 0.00
0.05 0.06 0.06 0.06 0.06 0.06 0.06 0.05 0.06 0.07 0.05 0.03 0.03 0.02 0.02 0.02 0.01 0.01 0.01 0.01 0.02 0.01 0.01 0.01 0.01 0.00 0.00 0.01 0.01 0.01 0.01 0.00 0.00 0.00 0.00 0.00 0.01 0.01 0.01 0.01 0.00 0.00 0.00
0.02 0.03 0.04 0.04 0.05 0.05 0.06 0.05 0.05 0.07 0.07 0.06 0.05 0.04 0.02 0.02 0.02 0.01 0.01 0.01 0.02 0.01 0.01 0.01 0.01 0.01 0.01 0.01 0.01 0.01 0.01 0.01 0.00 0.00 0.01 0.01 0.01 0.01 0.01 0.01 0.01 0.01 0.01
0.03 0.03 0.03 0.03 0.02 0.02 0.03 0.04 0.03 0.03 0.03 0.03 0.03 0.03 0.02 0.02 0.02 0.02 0.01 0.01 0.02 0.01 0.01 0.02 0.02 0.02 0.01 0.02 0.02 0.01 0.01 0.01 0.01 0.01 0.01 0.02 0.02 0.02 0.02 0.02 0.01 0.01 0.02
0.03 0.03 0.04 0.04 0.04 0.04 0.03 0.02 0.02 0.01 0.01 0.01 0.01 0.01 0.01 0.01 0.02 0.02 0.02 0.02 0.02 0.02 0.02 0.02 0.02 0.02 0.02 0.02 0.02 0.01 0.01 0.01 0.01 0.01 0.01 0.01 0.02 0.02 0.03 0.02 0.02 0.01 0.01
0.03 0.02 0.03 0.03 0.03 0.03 0.02 0.02 0.01 0.01 0.01 0.01 0.01 0.01 0.01 0.01 0.02 0.02 0.02 0.03 0.02 0.02 0.03 0.02 0.02 0.02 0.03 0.02 0.02 0.02 0.02 0.02 0.02 0.02 0.01 0.01 0.01 0.02 0.03 0.02 0.02 0.02 0.02
0.04 0.04 0.04 0.04 0.04 0.04 0.03 0.03 0.03 0.02 0.02 0.01 0.01 0.01 0.01 0.01 0.02 0.02 0.02 0.03 0.03 0.03 0.03 0.03 0.03 0.03 0.03 0.02 0.02 0.02 0.03 0.03 0.02 0.02 0.02 0.01 0.01 0.02 0.02 0.02 0.02 0.02 0.02
0.03 0.04 0.05 0.05 0.05 0.05 0.05 0.04 0.04 0.03 0.03 0.02 0.02 0.01 0.01 0.01 0.01 0.02 0.02 0.03 0.03 0.03 0.03 0.03 0.03 0.03 0.02 0.02 0.02 0.02 0.02 0.02 0.02 0.02 0.01 0.02 0.01 0.02 0.02 0.02 0.02 0.02 0.02
0.02 0.02 0.03 0.04 0.03 0.03 0.03 0.03 0.03 0.03 0.02 0.02 0.02 0.01 0.01 0.01 0.01 0.01 0.01 0.02 0.02 0.02 0.03 0.02 0.02 0.02 0.02 0.02 0.02 0.02 0.01 0.01 0.01 0.02 0.03 0.03 0.02 0.02 0.01 0.01 0.02 0.02 0.02
0.02 0.02 0.03 0.04 0.05 0.05 0.04 0.03 0.03 0.03 0.03 0.02 0.01 0.01 0.01 0.01 0.01 0.01 0.01 0.01 0.01 0.02 0.02 0.02 0.02 0.02 0.02 0.01 0.01 0.01 0.01 0.01 0.01 0.01 0.01 0.02 0.03 0.03 0.02 0.02 0.02 0.03 0.03
0.01 0.02 0.02 0.03 0.04 0.05 0.06 0.05 0.05 0.04 0.04 0.04 0.03 0.02 0.01 0.01 0.01 0.01 0.01 0.01 0.01 0.01 0.01 0.01 0.01 0.02 0.02 0.02 0.02 0.02 0.01 0.01 0.01 0.01 0.01 0.01 0.02 0.02 0.03 0.02 0.02 0.03 0.03
0.02 0.02 0.02 0.02 0.02 0.03 0.03 0.04 0.04 0.04 0.03 0.03 0.03 0.02 0.02 0.01 0.01 0.01 0.01 0.01 0.01 0.01 0.01 0.00 0.00 0.01 0.01 0.02 0.02 0.02 0.02 0.01 0.01 0.01 0.01 0.02 0.02 0.03 0.03 0.03 0.03 0.02 0.03
0.01 0.02 0.02 0.03 0.03 0.02 0.02 0.03 0.03 0.04 0.04 0.04 0.03 0.02 0.02 0.02 0.02 0.01 0.01 0.01 0.01 0.00 0.00 0.00 0.00 0.01 0.01 0.01 0.01 0.01 0.02 0.02 0.01 0.01 0.01 0.01 0.02 0.02 0.02 0.02 0.02 0.02 0.02
0.01 0.01 0.01 0.01 0.01 0.01 0.02 0.02 0.02 0.02 0.02 0.04 0.04 0.04 0.03 0.03 0.03 0.02 0.02 0.01 0.01 0.01 0.00 0.00 0.01 0.01 0.01 0.01 0.01 0.01 0.01 0.01 0.02 0.02 0.02 0.01 0.02 0.02 0.02 0.02 0.02 0.02 0.02
0.01 0.01 0.01 0.01 0.01 0.01 0.01 0.02 0.02 0.02 0.02 0.02 0.03 0.04 0.03 0.02 0.02 0.03 0.02 0.02 0.02 0.02 0.02 0.01 0.01 0.01 0.01 0.01 0.01 0.01 0.01 0.01 0.01 0.01 0.02 0.02 0.02 0.02 0.01 0.01 0.01 0.01 0.01
0.01 0.01 0.01 0.01 0.01 0.01 0.01 0.02 0.02 0.02 0.02 0.02 0.02 0.03 0.03 0.02 0.01 0.02 0.02 0.02 0.02 0.02 0.02 0.02 0.02 0.01 0.01 0.01 0.01 0.01 0.01 0.01 0.01 0.01 0.01 0.02 0.02 0.02 0.02 0.01 0.01 0.01 0.01
0.02 0.01 0.01 0.02 0.02 0.02 0.02 0.02 0.02 0.02 0.03 0.03 0.03 0.03 0.03 0.02 0.02 0.01 0.01 0.02 0.01 0.01 0.01 0.01 0.01 0.01 0.01 0.01 0.01 0.01 0.01 0.01 0.01 0.01 0.01 0.01 0.02 0.03 0.02 0.02 0.02 0.03 0.03
0.02 0.02 0.02 0.02 0.02 0.03 0.03 0.02 0.02 0.02 0.02 0.03 0.03 0.03 0.04 0.03 0.03 0.03 0.03 0.02 0.02 0.01 0.01 0.01 0.01 0.01 0.01 0.01 0.01 0.01 0.01 0.01 0.01 0.01 0.01 0.02 0.03 0.04 0.03 0.03 0.02 0.03 0.03
0.02 0.01 0.01 0.02 0.02 0.02 0.02 0.03 0.03 0.03 0.03 0.03 0.03 0.03 0.03 0.04 0.04 0.04 0.04 0.03 0.02 0.02 0.02 0.01 0.01 0.01 0.01 0.01 0.01 0.01 0.01 0.01 0.01 0.01 0.01 0.02 0.02 0.03 0.04 0.03 0.03 0.03 0.03
0.01 0.02 0.02 0.02 0.02 0.02 0.02 0.02 0.02 0.03 0.04 0.03 0.03 0.03 0.03 0.03 0.04 0.04 0.04 0.04 0.03 0.03 0.03 0.02 0.02 0.01 0.01 0.01 0.01 0.00 0.01 0.01 0.01 0.01 0.01 0.01 0.02 0.02 0.02 0.02 0.02 0.03 0.03
0.01 0.01 0.02 0.02 0.02 0.02 0.02 0.02 0.03 0.03 0.03 0.02 0.02 0.02 0.02 0.03 0.03 0.04 0.04 0.03 0.03 0.03 0.03 0.03 0.02 0.01 0.01 0.01 0.00 0.01 0.01 0.01 0.01 0.01 0.01 0.01 0.01 0.01 0.01 0.02 0.02 0.03 0.03
MSLP
1002.41 1002.75 1003.24 1003.86 1004.56 1005.33 1006.11 1006.88 1007.64 1008.39 1009.12 1009.83 1010.53 1011.22 1011.89 1012.55 1013.18 1013.77 1014.33 1014.84 1015.30 1015.73 1016.12 1016.47 1016.79 1017.10 1017.38 1017.66 1017.93 1018.19 1018.43 1018.65 1018.83 1018.96 1019.03 1019.03 1018.94 1018.79 1018.59 1018.35 1018.10 1017.85 1017.63
1001.96 1002.14 1002.48 1002.97 1003.58 1004.27 1005.02 1005.79 1006.57 1007.35 1008.12 1008.87 1009.61 1010.34 1011.05 1011.73 1012.40 1013.03 1013.62 1014.18 1014.68 1015.15 1015.56 1015.94 1016.29 1016.61 1016.92 1017.23 1017.54 1017.86 1018.18 1018.48 1018.75 1018.97 1019.12 1019.17 1019.13 1019.01 1018.80 1018.55 1018.27 1017.98 1017.71
1001.74 1001.76 1001.95 1002.29 1002.78 1003.37 1004.05 1004.79 1005.57 1006.35 1007.14 1007.93 1008.69 1009.44 1010.17 1010.88 1011.56 1012.22 1012.85 1013.44 1013.98 1014.48 1014.94 1015.36 1015.73 1016.09 1016.44 1016.78 1017.14 1017.52 1017.90 1018.28 1018.63 1018.93 1019.15 1019.27 1019.29 1019.20 1019.01 1018.76 1018.46 1018.15 1017.84
1001.68 1001.55 1001.57 1001.76 1002.10 1002.59 1003.19 1003.88 1004.63 1005.41 1006.22 1007.02 1007.81 1008.58 1009.32 1010.04 1010.74 1011.41 1012.06 1012.67 1013.25 1013.79 1014.29 1014.75 1015.17 1015.56 1015.95 1016.34 1016.75 1017.17 1017.61 1018.04 1018.46 1018.82 1019.11 1019.29 1019.36 1019.32 1019.17 1018.94 1018.65 1018.32 1017.98
1001.68 1001.39 1001.25 1001.28 1001.49 1001.85 1002.37 1003.00 1003.73 1004.51 1005.33 1006.16 1006.98 1007.77 1008.53 1009.26 1009.97 1010.65 1011.31 1011.95 1012.55 1013.12 1013.66 1014.16 1014.63 1015.07 1015.49 1015.92 1016.37 1016.83 1017.30 1017.77 1018.23 1018.64 1018.98 1019.22 1019.35 1019.36 1019.26 1019.06 1018.80 1018.48 1018.12
1001.65 1001.20 1000.91 1000.79 1000.85 1001.11 1001.54 1002.12 1002.83 1003.62 1004.47 1005.33 1006.18 1007.00 1007.79 1008.54 1009.26 1009.96 1010.63 1011.28 1011.92 1012.52 1013.10 1013.64 1014.15 1014.63 1015.09 1015.55 1016.02 1016.50 1016.99 1017.49 1017.97 1018.41 1018.79 1019.07 1019.25 1019.32 1019.27 1019.12 1018.89 1018.59 1018.24
1001.53 1000.95 1000.51 1000.24 1000.17 1000.32 1000.68 1001.22 1001.91 1002.71 1003.59 1004.49 1005.39 1006.25 1007.08 1007.86 1008.60 1009.32 1010.01 1010.69 1011.35 1011.99 1012.61 1013.19 1013.75 1014.27 1014.77 1015.25 1015.74 1016.22 1016.72 1017.22 1017.70 1018.16 1018.56 1018.88 1019.11 1019.23 1019.23 1019.13 1018.94 1018.67 1018.34
1001.36 1000.64 1000.06 999.66 999.47 999.52 999.80 1000.29 1000.97 1001.78 1002.69 1003.63 1004.57 1005.49 1006.35 1007.17 1007.95 1008.69 1009.42 1010.13 1010.83 1011.52 1012.18 1012.82 1013.43 1014.00 1014.53 1015.04 1015.53 1016.02 1016.51 1017.00 1017.48 1017.94 1018.35 1018.69 1018.95 1019.11 1019.17 1019.12 1018.97 1018.73 1018.41
1001.19 1000.35 999.65 999.13 998.83 998.78 998.98 999.42 1000.07 1000.88 1001.79 1002.76 1003.74 1004.68 1005.59 1006.45 1007.26 1008.05 1008.82 1009.58 1010.33 1011.08 1011.81 1012.51 1013.17 1013.80 1014.37 1014.91 1015.42 1015.92 1016.40 1016.88 1017.34 1017.79 1018.20 1018.55 1018.83 1019.02 1019.11 1019.10 1018.98 1018.76 1018.46
1001.13 1000.20 999.40 998.77 998.37 998.23 998.35 998.72 999.32 1000.09 1000.98 1001.94 1002.92 1003.88 1004.81 1005.69 1006.55 1007.38 1008.19 1009.01 1009.83 1010.65 1011.46 1012.23 1012.97 1013.65 1014.29 1014.86 1015.40 1015.90 1016.38 1016.84 1017.29 1017.72 1018.13 1018.48 1018.76 1018.97 1019.08 1019.08 1018.99 1018.80 1018.51
1001.29 1000.31 999.43 998.72 998.23 998.00 998.03 998.32 998.83 999.53 1000.36 1001.27 1002.21 1003.15 1004.07 1004.96 1005.84 1006.70 1007.57 1008.45 1009.35 1010.24 1011.13 1011.99 1012.80 1013.56 1014.25 1014.87 1015.43 1015.95 1016.43 1016.89 1017.32 1017.74 1018.12 1018.46 1018.74 1018.95 1019.06 1019.08 1019.00 1018.82 1018.55
1001.73 1000.73 999.83 999.07 998.52 998.21 998.15 998.33 998.74 999.33 1000.05 1000.87 1001.73 1002.60 1003.48 1004.35 1005.22 1006.11 1007.01 1007.95 1008.90 1009.87 1010.84 1011.78 1012.66 1013.49 1014.23 1014.90 1015.50 1016.03 1016.52 1016.97 1017.40 1017.80 1018.16 1018.49 1018.75 1018.95 1019.06 1019.08 1019.00 1018.84 1018.59
1002.45 1001.49 1000.60 999.84 999.26 998.89 998.76 998.84 999.12 999.58 1000.17 1000.85 1001.59 1002.36 1003.16 1003.97 1004.81 1005.69 1006.61 1007.57 1008.57 1009.59 1010.62 1011.61 1012.56 1013.44 1014.23 1014.93 1015.56 1016.11 1016.61 1017.06 1017.47 1017.85 1018.20 1018.50 1018.75 1018.93 1019.04 1019.06 1018.99 1018.84 1018.62
1003.37 1002.50 1001.69 1000.98 1000.41 1000.03 999.83 999.82 999.99 1000.31 1000.75 1001.27 1001.86 1002.50 1003.19 1003.92 1004.70 1005.53 1006.43 1007.40 1008.41 1009.45 1010.49 1011.52 1012.49 1013.39 1014.21 1014.94 1015.58 1016.14 1016.64 1017.09 1017.50 1017.87 1018.20 1018.49 1018.72 1018.89 1018.99 1019.01 1018.96 1018.83 1018.64
1004.36 1003.64 1002.95 1002.34 1001.84 1001.48 1001.26 1001.20 1001.27 1001.46 1001.75 1002.12 1002.56 1003.06 1003.62 1004.24 1004.93 1005.70 1006.55 1007.47 1008.45 1009.47 1010.50 1011.50 1012.47 1013.36 1014.17 1014.89 1015.53 1016.09 1016.59 1017.04 1017.44 1017.81 1018.14 1018.41 1018.64 1018.81 1018.92 1018.95 1018.92 1018.83 1018.68
1005.28 1004.72 1004.20 1003.73 1003.34 1003.05 1002.86 1002.78 1002.79 1002.89 1003.07 1003.31 1003.61 1003.97 1004.40 1004.91 1005.50 1006.18 1006.95 1007.80 1008.71 1009.66 1010.63 1011.57 1012.48 1013.32 1014.10 1014.79 1015.41 1015.96 1016.45 1016.90 1017.31 1017.68 1018.01 1018.30 1018.53 1018.71 1018.83 1018.89 1018.89 1018.84 1018.75
1005.97 1005.60 1005.26 1004.96 1004.71 1004.53 1004.41 1004.35 1004.35 1004.40 1004.50 1004.65 1004.85 1005.10 1005.43 1005.84 1006.33 1006.91 1007.58 1008.33 1009.14 1009.99 1010.85 1011.70 1012.52 1013.28 1013.99 1014.64 1015.22 1015.75 1016.24 1016.69 1017.11 1017.50 1017.85 1018.15 1018.41 1018.61 1018.76 1018.85 1018.89 1018.89 1018.85
1006.36 1006.17 1006.01 1005.88 1005.79 1005.73 1005.70 1005.70 1005.73 1005.78 1005.86 1005.96 1006.10 1006.29 1006.55 1006.88 1007.28 1007.77 1008.34 1008.98 1009.68 1010.40 1011.14 1011.86 1012.57 1013.23 1013.86 1014.44 1014.99 1015.50 1015.99 1016.45 1016.89 1017.30 1017.68 1018.01 1018.30 1018.54 1018.72 1018.85 1018.93 1018.98 1018.99
1006.46 1006.42 1006.41 1006.43 1006.48 1006.54 1006.62 1006.70 1006.79 1006.88 1006.97 1007.08 1007.21 1007.38 1007.60 1007.88 1008.23 1008.64 1009.12 1009.65 1010.23 1010.82 1011.43 1012.03 1012.61 1013.17 1013.71 1014.23 1014.74 1015.24 1015.73 1016.20 1016.67 1017.11 1017.53 1017.90 1018.22 1018.50 1018.72 1018.88 1019.00 1019.09 1019.14
1006.34 1006.40 1006.49 1006.63 1006.78 1006.95 1007.13 1007.30 1007.45 1007.60 1007.75 1007.89 1008.05 1008.24 1008.46 1008.73 1009.05 1009.41 1009.82 1010.26 1010.72 1011.20 1011.68 1012.16 1012.63 1013.10 1013.56 1014.03 1014.51 1014.99 1015.49 1015.99 1016.48 1016.96 1017.41 1017.81 1018.17 1018.47 1018.72 1018.92 1019.07 1019.19 1019.28
1006.12 1006.22 1006.37 1006.56 1006.79 1007.03 1007.28 1007.52 1007.75 1007.97 1008.17 1008.38 1008.60 1008.83 1009.08 1009.36 1009.67 1010.01 1010.37 1010.74 1011.12 1011.50 1011.87 1012.25 1012.63 1013.01 1013.42 1013.84 1014.30 1014.78 1015.29 1015.81 1016.33 1016.83 1017.31 1017.74 1018.12 1018.44 1018.70 1018.92 1019.09 1019.24 1019.35
1005.91 1006.01 1006.17 1006.38 1006.63 1006.91 1007.20 1007.49 1007.77 1008.05 1008.32 1008.59 1008.87 1009.16 1009.45 1009.76 1010.09 1010.41 1010.74 1011.07 1011.38 1011.69 1011.99 1012.29 1012.60 1012.92 1013.29 1013.69 1014.13 1014.61 1015.12 1015.65 1016.19 1016.71 1017.20 1017.64 1018.02 1018.35 1018.62 1018.84 1019.03 1019.18 1019.32
1005.85 1005.91 1006.04 1006.23 1006.47 1006.75 1007.04 1007.35 1007.67 1007.99 1008.31 1008.63 1008.96 1009.29 1009.63 1009.98 1010.31 1010.64 1010.96 1011.25 1011.53 1011.78 1012.03 1012.28 1012.54 1012.83 1013.16 1013.54 1013.98 1014.45 1014.97 1015.50 1016.04 1016.56 1017.04 1017.47 1017.84 1018.16 1018.43 1018.64 1018.83 1019.00 1019.16
1005.97 1005.99 1006.08 1006.23 1006.44 1006.69 1006.97 1007.27 1007.59 1007.92 1008.26 1008.61 1008.97 1009.33 1009.70 1010.06 1010.41 1010.74 1011.05 1011.32 1011.57 1011.79 1012.01 1012.22 1012.46 1012.73 1013.04 1013.41 1013.83 1014.30 1014.80 1015.33 1015.85 1016.35 1016.81 1017.22 1017.57 1017.87 1018.12 1018.33 1018.51 1018.69 1018.87
1006.28 1006.26 1006.31 1006.43 1006.60 1006.81 1007.06 1007.33 1007.63 1007.95 1008.28 1008.63 1008.99 1009.36 1009.73 1010.09 1010.43 1010.75 1011.04 1011.30 1011.52 1011.73 1011.92 1012.12 1012.35 1012.60 1012.91 1013.26 1013.67 1014.13 1014.62 1015.12 1015.61 1016.08 1016.51 1016.89 1017.21 1017.48 1017.71 1017.91 1018.09 1018.28 1018.47
1006.74 1006.71 1006.74 1006.83 1006.96 1007.14 1007.35 1007.59 1007.84 1008.12 1008.42 1008.74 1009.07 1009.41 1009.75 1010.08 1010.40 1010.70 1010.97 1011.20 1011.41 1011.61 1011.79 1011.98 1012.20 1012.45 1012.75 1013.09 1013.49 1013.93 1014.39 1014.86 1015.32 1015.76 1016.15 1016.49 1016.78 1017.03 1017.24 1017.43 1017.62 1017.81 1018.01
Thickness
5677 5676 5675 5672 5670 5668 5665 5663 5661 5659 5657 5655 5652 5649 5646 5644 5641 5639 5636 5634 5632 5629 5628 5626 5624 5622 5621 5619 5618 5617 5615 5614 5610 5609 5610 5612 5613 5614 5615 5616 5617 5617 5618
5674 5673 5671 5669 5666 5663 5661 5659 5657 5655 5653 5651 5648 5645 5642 5640 5637 5635 5632 5630 5627 5624 5623 5621 5619 5618 5615 5614 5612 5611 5609 5608 5606 5604 5604 5604 5605 5607 5607 5608 5609 5610 5611
5669 5667 5665 5663 5661 5659 5657 5655 5653 5650 5648 5646 5644 5641 5638 5636 5633 5630 5627 5625 5623 5620 5618 5616 5614 5612 5609 5608 5607 5605 5604 5603 5601 5599 5597 5598 5598 5599 5599 5601 5602 5603 5604
5664 5662 5659 5658 5657 5655 5653 5651 5648 5646 5643 5641 5639 5637 5634 5632 5629 5626 5623 5620 5618 5616 5614 5612 5610 5608 5606 5604 5603 5600 5598 5596 5595 5593 5591 5591 5591 5591 5591 5591 5592 5594 5595
5657 5655 5654 5653 5652 5650 5647 5645 5643 5641 5639 5636 5633 5631 5629 5627 5625 5621 5618 5616 5613 5610 5608 5607 5606 5605 5604 5602 5600 5596 5594 5591 5588 5586 5585 5584 5583 5583 5583 5584 5583 5584 5586
5651 5649 5648 5647 5645 5643 5641 5639 5637 5634 5632 5629 5627 5625 5623 5623 5621 5618 5614 5611 5607 5605 5603 5601 5600 5599 5598 5597 5596 5594 5592 5588 5584 5581 5579 5578 5578 5577 5577 5577 5575 5575 5575
5644 5643 5642 5640 5638 5636 5635 5632 5629 5627 5625 5622 5620 5618 5617 5616 5616 5613 5610 5605 5602 5599 5597 5595 5594 5594 5592 5590 5589 5588 5586 5585 5583 5579 5576 5574 5573 5573 5572 5570 5569 5568 5568
5636 5635 5635 5633 5631 5629 5626 5624 5622 5620 5617 5615 5613 5612 5610 5609 5609 5607 5604 5600 5596 5593 5591 5590 5587 5586 5585 5584 5582 5579 5578 5577 5577 5575 5574 5572 5571 5569 5567 5566 5564 5562 5561
5627 5626 5626 5625 5623 5621 5618 5617 5615 5612 5610 5608 5607 5605 5603 5602 5602 5600 5597 5592 5588 5586 5585 5583 5582 5580 5580 5578 5576 5573 5570 5569 5569 5569 5568 5566 5565 5563 5561 5557 5554 5552 5552
5618 5618 5618 5617 5615 5613 5612 5610 5607 5605 5603 5602 5600 5598 5597 5595 5594 5592 5589 5584 5580 5578 5577 5576 5575 5574 5573 5571 5569 5566 5563 5562 5561 5560 5559 5557 5556 5555 5553 5550 5548 5545 5543
5609 5609 5609 5609 5608 5606 5604 5602 5599 5597 5595 5593 5591 5590 5589 5587 5586 5584 5582 5577 5574 5571 5569 5567 5567 5567 5566 5564 5562 5560 5558 5556 5553 5551 5549 5548 5547 5545 5544 5542 5541 5539 5537
5600 5600 5599 5599 5599 5598 5595 5593 5591 5588 5585 5583 5581 5580 5579 5578 5578 5576 5574 5572 5569 5564 5562 5560 5559 5559 5558 5556 5554 5553 5551 5549 5545 5542 5539 5537 5536 5535 5535 5534 5533 5532 5531
5590 5589 5588 5589 5588 5588 5586 5583 5581 5579 5576 5574 5572 5571 5569 5569 5568 5568 5566 5564 5561 5558 5556 5554 5552 5551 5549 5547 5546 5544 5542 5538 5535 5532 5530 5528 5527 5527 5526 5524 5523 5522 5521
5579 5579 5578 5577 5577 5576 5576 5574 5572 5570 5568 5566 5564 5562 5560 5559 5558 5557 5556 5554 5552 5549 5547 5545 5543 5541 5539 5537 5536 5533 5531 5529 5526 5524 5521 5520 5518 5517 5515 5514 5512 5511 5510
5568 5568 5568 5567 5566 5565 5564 5563 5562 5562 5561 5559 5557 5555 5553 5551 5551 5551 5548 5545 5543 5540 5538 5535 5532 5529 5528 5526 5524 5522 5521 5519 5516 5514 5512 5510 5509 5507 5506 5504 5502 5501 5500
5557 5556 5556 5556 5555 5554 5553 5551 5552 5552 5552 5552 5551 5549 5547 5546 5545 5543 5541 5538 5535 5533 5529 5525 5522 5520 5518 5516 5515 5512 5511 5509 5507 5506 5503 5501 5500 5498 5496 5494 5493 5491 5491
5546 5546 5545 5545 5544 5543 5542 5541 5539 5540 5541 5541 5540 5539 5538 5537 5536 5534 5532 5528 5526 5524 5520 5517 5514 5512 5510 5508 5506 5504 5502 5501 5499 5497 5495 5493 5491 5489 5488 5486 5484 5482 5482
5536 5536 5535 5534 5533 5533 5532 5531 5530 5529 5528 5528 5528 5528 5527 5527 5526 5524 5521 5518 5514 5512 5510 5508 5506 5504 5502 5500 5498 5496 5495 5492 5490 5488 5486 5485 5483 5481 5479 5477 5476 5475 5474
5525 5524 5524 5523 5523 5522 5521 5520 5520 5519 5518 5517 5516 5516 5516 5516 5515 5514 5511 5507 5504 5502 5501 5499 5498 5496 5494 5493 5491 5489 5487 5485 5483 5480 5479 5477 5475 5473 5471 5470 5468 5468 5467
5515 5517 5515 5513 5512 5511 5510 5509 5508 5508 5508 5507 5507 5507 5506 5504 5503 5502 5501 5498 5496 5494 5493 5491 5490 5489 5487 5486 5484 5482 5480 5478 5475 5473 5472 5470 5468 5466 5464 5463 5461 5461 5460
5506 5506 5507 5504 5503 5502 5501 5500 5499 5499 5499 5499 5499 5499 5498 5496 5495 5494 5492 5490 5488 5487 5485 5484 5483 5482 5480 5479 5477 5475 5473 5471 5469 5467 5465 5463 5461 5459 5458 5456 5455 5455 5454
5497 5497 5496 5495 5495 5493 5492 5491 5490 5490 5490 5490 5490 5490 5490 5488 5487 5485 5484 5483 5481 5480 5478 5477 5476 5475 5474 5472 5470 5468 5466 5465 5463 5461 5459 5457 5455 5454 5452 5451 5449 5448 5447
5489 5488 5487 5486 5485 5485 5484 5483 5482 5482 5482 5482 5481 5481 5480 5479 5478 5477 5476 5475 5474 5472 5471 5470 5469 5468 5466 5466 5464 5462 5461 5459 5457 5455 5453 5451 5449 5448 5446 5445 5444 5442 5441
5480 5479 5479 5477 5476 5475 5474 5474 5473 5474 5474 5474 5473 5472 5472 5471 5470 5469 5468 5467 5466 5465 5464 5462 5461 5461 5460 5459 5458 5456 5455 5454 5452 5449 5447 5445 5443 5442 5440 5439 5438 5437 5436
5472 5471 5470 5469 5468 5467 5466 5465 5465 5465 5466 5466 5465 5464 5463 5462 5461 5461 5460 5459 5458 5457 5456 5455 5454 5454 5453 5452 5451 5450 5449 5447 5445 5443 5441 5439 5437 5435 5434 5433 5432 5431 5430
5464 5464 5462 5462 5460 5460 5459 5458 5457 5457 5457 5457 5456 5456 5455 5454 5454 5453 5452 5451 5450 5450 5449 5448 5447 5446 5446 5445 5444 5443 5441 5440 5438 5436 5434 5432 5431 5429 5428 5427 5426 5425 5423